Find Local Weather

World > North America > United States > California

San Diego, California Regional Weather

Lat: 32.72N, Lon: 117.16W
Wx Zone: CAZ043
Feedback
Expires:201808220300;;435646
ASUS46 KSGX 220211
RWRSGX

SAN DIEGO HOURLY WEATHER ROUNDUP
NATIONAL WEATHER SERVICE SAN DIEGO CA
700 PM PDT TUE AUG 21 2018

NOTE: "FAIR" INDICATES FEW OR NO CLOUDS BELOW 12,000 FEET WITH NO 
SIGNIFICANT WEATHER AND/OR OBSTRUCTIONS TO VISIBILITY.


CAZ042-043-060-061-PZZ750-775-220300-

GREATER SAN DIEGO AREA
  
CITY           SKY/WX    TMP DP  RH WIND       PRES   REMARKS
SAN DIEGO AP   PTCLDY    77  66  68 NW7       29.94S                  
NATIONAL CITY    N/A     76  68  75 CALM      29.94R                  
CHULA VISTA      N/A     75  69  79 W5        29.85R                  
IMPERIAL BEACH PTCLDY    73  65  75 W8        29.94R                  
BROWN FIELD    CLEAR     73  65  75 W7        29.94R                  
MIRAMAR MCAS   PTCLDY    78  64  61 W8        29.93S                  
MONTGOMERY FLD CLEAR     75  65  70 SW9       29.94R                  
GILLESPIE FLD  CLEAR     81  63  54 SW8       29.92S                  

$$

NORTH SAN DIEGO COUNTY
  
CITY           SKY/WX    TMP DP  RH WIND       PRES   REMARKS
CAMP PENDLETON PTCLDY    73  67  81 SW5       29.92R                  
OCEANSIDE AP   CLEAR     75  65  70 W9        29.91S                  
OCEANSIDE HBR    N/A     75  69  82 NE3       29.94S                  
VISTA            N/A     76  67  74 SW3       29.89S                  
CARLSBAD       CLEAR     73  67  81 W5        29.93R                  
DEL MAR          N/A     76  67  74 W1        29.94R                  
LA JOLLA SCRIP   N/A     73  68  84 SW3       29.92S                  
ESCONDIDO        N/A     80  65  60 W3        29.92S                  
SAN MARCOS       N/A     75  67  75 NW9       29.96R                  
POWAY            N/A     79  65  60 CALM      29.90R                  

$$

EAST SAN DIEGO COUNTY
  
CITY           SKY/WX    TMP DP  RH WIND       PRES   REMARKS
RAMONA         CLEAR     78  61  55 W8        29.96R                  
LA MESA          N/A     78  66  67 CALM      29.86S                  
JAMUL            N/A     77  65  67 CALM      29.92R                  
CAMPO            N/A     80  53  39 SW15      29.97S                  

$$

ORANGE COUNTY AND THE LOS ANGELES BASIN
  
CITY           SKY/WX    TMP DP  RH WIND       PRES   REMARKS
JOHN WAYNE AP  PTCLDY    74  65  73 W7        29.92R                  
LAGUNA BEACH     N/A     76  69  77 CALM      29.88R                  
LAKE FOREST FR   N/A     77  63  61 SW2       29.80R                  
HUNTINGTON BCH   N/A     73  68  84 W12       29.92S                  
LOS ALAMITOS   CLEAR     76  65  67 S6        29.91R                  
FULLERTON      CLEAR     78  63  59 S9        29.90R                  
LONG BEACH     CLEAR     77  66  68 W12       29.91S                  
L.A. AP        PTCLDY    73  66  78 W12       29.92S                  
L.A. DOWNTOWN  CLEAR     76  66  71 VRB3      29.91R                  

$$

THE INLAND EMPIRE
  
CITY           SKY/WX    TMP DP  RH WIND       PRES   REMARKS
CORONA         CLEAR     81  66  60 MISG      29.90R                  
CHINO          PTCLDY    83  64  52 SW14      29.91S                  
ONTARIO        PTCLDY    84  62  47 SW14      29.91R                  
RIVERSIDE AP   CLEAR     83  62  49 W15       29.91R                  
MORENO VALLEY    N/A     86  62  44 W7        28.06R                  
MARCH ARB      CLEAR     84  56  38 NW9       29.94R                  
HORSETHIEF CYN   N/A     85  59  40 NE7       29.88S                  
PERRIS           N/A     86  61  43 NW7         N/A                   
HEMET EAST       N/A     86  54  33 SW2       29.84R                  
FRENCH VALLEY  FAIR      79  57  47 SW8       29.94S                  
TEMECULA         N/A     82  63  52 SW7       29.95S                  

$$

SAN BERNARDINO AND RIVERSIDE COUNTY MOUNTAINS
  
CITY           SKY/WX    TMP DP  RH WIND       PRES   REMARKS
BIG BEAR AP    CLEAR     68  46  45 CALM      30.26S                  

$$

SOUTHERN DESERT INCLUDING THE COACHELLA VALLEY
  
CITY           SKY/WX    TMP DP  RH WIND       PRES   REMARKS
PALM SPRINGS   CLEAR    102  56  21 VRB3      29.79S HX 101           
THOUSAND PALMS   N/A    102  64  29 S3        29.73S HX 105           
PALM DESERT      N/A    103  62  25 CALM      26.99S HX 105           
THERMAL        CLEAR    103  69  33 SE8       29.72R HX 110           
BLYTHE         MOCLDY   102  62  26 S16       29.78R HX 104           
IMPERIAL AP    CLOUDY    99  66  33 SE20      29.74S HX 103           
EL CENTRO NAS  PTCLDY    98  64  32 SE17      29.76S HX 100           
YUMA AZ        CLEAR     96  64  34 S14       29.80R HX  98           
MEXICALI       MOCLDY    93  66  40 SE10      29.79  HX  96           

$$

UPPER DESERT
  
CITY           SKY/WX    TMP DP  RH WIND       PRES   REMARKS
VICTORVILLE AP CLEAR    N/A N/A N/A S12       29.96S                  
HESPERIA         N/A     83  52  34 SW12      29.82R                  
APPLE VALLEY     N/A     84  52  33 NW14      29.82S                  
PALMDALE       CLEAR     86  51  29 SW13G23   29.96R                  
LANCASTER      CLEAR     84  50  30 W23       29.95R                  
EDWARDS AFB    PTCLDY    88  41  18 SW26      29.91R                  
DAGGETT        CLEAR     98  47  17 SW23G29   29.84R                  
29 PALMS N     CLEAR     96  50  20 SW22      29.92S                  
NEEDLES        CLEAR    105  60  22 S17       29.79R HX 106           

$$

REGIONAL REPORTS
  
CITY           SKY/WX    TMP DP  RH WIND       PRES   REMARKS
SANTA BARBARA  CLEAR     70  63  78 W10       29.92S                  
SANDBERG         N/A     75  45  34 S15       30.12S                  
LAS VEGAS NV   PTCLDY   101  49  17 SW14G21   29.82R HX  98           
PHOENIX AZ     MOCLDY    99  59  26 S7        29.84S HX  99           
TIJUANA        CLEAR     73  64  73 CALM      29.96R                  
ENSENADA NW      N/A     73  32  22 CALM      29.88S                  

$$

OFFSHORE ISLANDS
  
CITY           SKY/WX    TMP DP  RH WIND       PRES   REMARKS
CATALINA ARPT  CLOUDY    65  63  93 SW14      29.97S FOG              
SAN CLEMENTE I CLOUDY    70  64  81 W10       29.95S                  
SAN NICOLAS IS MOCLDY    66  32  28 W16       29.95S                  

$$

MARINE AND OFFSHORE BUOY REPORTS
  
STATION/POSITION SKY/WX   TEMP    WIND        PRES    VSBY  SWELL
                          AIR SEA DIR/SP/G                  HT/PER/DIR
                          (F)     (DEG/KT/KT) (MB)    (MI)  (FT/S/D)
TANNER BANKS               64 71              1014.5R
S CLEMENTE BASIN           71 74  280/ 10/ 12 1013.6R         3/180/12
SAN NICOLAS IS.               69                N/A           2/190/13
SO. S. ROSA ISLA           63 69  300/ 16/ 17 1013.9S         3/320/ 9
W. S. BARBARA CH              66              1013.5          3/290/ 9
M. S. BARBARA CH           67 69  260/ 14/ 16 1013.8
S. MONICA BASIN            69 72  260/ 12/ 14 1013.1F         2/170/13
S PEDRO CHANNEL               74                N/A           2/150/13
CMP PENDLETON NS              77                N/A           2/220/18
OCEANSIDE OFFSHR              76                N/A           2/200/13
TORREY PINES OTR              76                N/A           2/200/18
SAN DIEGO BAY                                 1013.2R
POINT LOMA SOUTH              76                N/A           2/180/13

$$

  

SKY/WX - Weather  TMP - Temperature  DP - Dewpoint  RH - Relative Humidity
WIND - Wind Direction/Speed PRES - Barometric Pressure